Regional Weather Roundup
Issued by NWS

Home | Current Version | Previous Version | Text Only | Print | Product List | Glossary Off
Versions: 1 2 3 4 5 6 7 8 9 10 11 12 13 14 15 16 17 18 19 20 21 22 23 24 25 26 27 28 29 30 31 32 33 34 35 36 37 38 39 40 41 42 43 44 45 46 47 48 49 50

000
ASUS43 KOAX 060702
RWRNE

WEATHER ROUNDUP FOR NEBRASKA
NATIONAL WEATHER SERVICE OMAHA NE
200 AM CDT WED MAY 06 2015

NOTES: SATELLITE DATA IS BEING USED TO AUGMENT CLOUD COVER ABOVE
       12000 FEET.
       "FAIR" INDICATES FEW OR NO CLOUDS BELOW 12,000 FEET WITH NO
       SIGNIFICANT WEATHER AND/OR OBSTRUCTIONS TO VISIBILITY.

  * THESE STATIONS DO NOT REPORT WEATHER SUCH AS RAIN...SNOW OR FOG.

NEZ001>004-019>022-054>056-060800-
NEBRASKA PANHANDLE

CITY           SKY/WX    TMP DP  RH WIND       PRES   REMARKS
SCOTTSBLUFF    LGT RAIN  52 N/A N/A E13       29.75F
CHADRON        CLOUDY    55  51  86 SE3       29.78F
SIDNEY         CLOUDY    52  51  97 E15       29.74F FOG
$$

NEZ057>060-069>072-079>082-060800-
SOUTHWEST NEBRASKA

CITY           SKY/WX    TMP DP  RH WIND       PRES   REMARKS
NORTH PLATTE   CLOUDY    58  56  93 SE12      29.78F
IMPERIAL       CLOUDY    56  53  90 SE13G23   29.75S
MCCOOK         CLOUDY    60  57  89 SE16G25   29.76F
$$

NEZ005>010-023>029-035>040-094-060800-
NORTH CENTRAL NEBRASKA

CITY           SKY/WX    TMP DP  RH WIND       PRES   REMARKS
VALENTINE      CLOUDY    57  53  86 SE12      29.82F
AINSWORTH      CLOUDY    57  56  95 SE15      29.83F
BROKEN BOW     CLOUDY    59  56  89 SE13      29.82F
ORD            CLOUDY    58  55  90 SE12      29.84F
$$

NEZ041-046>049-061>064-073>077-083>087-060800-
SOUTH CENTRAL NEBRASKA

CITY           SKY/WX    TMP DP  RH WIND       PRES   REMARKS
GRAND ISLAND   LGT RAIN  60  57  89 SE13      29.88F
AURORA         DRIZZLE   61  58  92 S8        29.89F
HASTINGS       CLOUDY    61  57  87 SE15G25   29.86F
KEARNEY *      CLOUDY    59  55  88 SE17G23   29.84F
$$

NEZ011>018-030>034-042>045-060800-
NORTHEAST NEBRASKA

CITY           SKY/WX    TMP DP  RH WIND       PRES   REMARKS
NORFOLK        CLOUDY    61  59  93 SE8       29.91F
ALBION         CLOUDY    60  58  94 SE10      29.89F
BLAIR          DRIZZLE   65  58  77 S14G21    29.97S
COLUMBUS *     CLOUDY    63  55  77 SE10      29.93F
TEKAMAH        CLOUDY    65  59  81 SE10      29.95F
$$

NEZ050>053-065>068-078-088>093-060800-
SOUTHEAST NEBRASKA

CITY           SKY/WX    TMP DP  RH WIND       PRES   REMARKS
LINCOLN        CLOUDY    64  60  87 SE15      29.94F
OMAHA EPPLEY   LGT RAIN  67  59  75 SE15G24   29.97F
BEATRICE       CLOUDY    64  61  89 SE13G18   29.93F
FALLS CITY     CLOUDY    64  63  96 S7        29.96F
NEBRASKA CITY  LGT RAIN  63  62  99 S16G22    29.98F
$$

NEZ044-045-051>053-067-060800-
OMAHA AREA

CITY           SKY/WX    TMP DP  RH WIND       PRES   REMARKS
OMAHA EPPLEY   LGT RAIN  67  59  75 SE15G24   29.97F
BLAIR          DRIZZLE   65  58  77 S14G21    29.97S
OFFUTT AFB     DRIZZLE   64  61  88 SE15      29.97F
$$


USA.gov is the U.S. government's official web portal to all federal, state and local government web resources and services.